www.pogodaiklimat.ru
ПОГОДА в Трухильо
Время
(UTC), дата
12 23.10
15 23.10
18 23.10
21 23.10
00 24.10
12 24.10
15 24.10
18 24.10
21 24.10
00 25.10
12 25.10
15 25.10
18 25.10
21 25.10
00 26.10
12 26.10
15 26.10
18 26.10
21 26.10
00 27.10
12 27.10
15 27.10
18 27.10
21 27.10
00 28.10
12 28.10
15 28.10
18 28.10
21 28.10
00 29.10
12 29.10
15 29.10
18 29.10
21 29.10
00 30.10
Ветер
(напр.,м/с)
Видим. Явления Облачность Т
(С)
Тd
(С)
f
(%)
Тe
(С)
Тes
(С)
Комфортность P
(гПа)
Po
(гПа)
Тmin
(С)
Tmax
(С)
R
(мм)
R24
(мм)
S
(см)
штиль 0 15 км мгла 9/3 720 м
[Cu med, cong Ac As Ci fib]
+24.4 +23.0 92 +32 +32 очень
душно
1011.5 1011.0 +23.2 +31.3
З 2 16 км мгла 9/0 600 м
[Ac As Cs]
+30.0 +23.7 69 +41 +45 опасность
перегрева
1012.8 1012.3
З 2 16 км мгла 9/8 600 м
[Cu med, cong Ac As Cs]
+30.8 +23.2 64 +43 +49 опасность
перегрева
1012.4 1011.9 +23.2 +30.8
З 2 12 км мгла 9/0 600 м
[Ac As Cs]
+29.8 +26.1 81 +45 +48 опасность
перегрева
1009.8 1009.3
З 2 10 км 9/0 600 м
[Ac As Cs]
+31.4 +23.2 62 +39 +39 очень
душно
1010.3 1009.8 +23.2 +31.4
штиль 0 15 км мгла 9/1 720 м
[Cu hum Cs]
+24.2 +21.8 86 +31 +31 очень
душно
1010.7 1010.2 +24.1 +31.4
З 2 15 км мгла 9/9 600 м
[Cu med, cong Ac As Cs]
+29.3 +23.7 72 +40 +44 очень
душно
1011.6 1011.1
ЮЗ 2 5000 м гроза с градом {ливн. дождь} 9/8 600 м
[Cb cap Ac cuf Ci sp]
+25.1 +24.4 96 +35 +37 очень
душно
1011.3 1010.8 +24.1 +29.3 21
СЗ 2 8000 м осадки на расстоянии {ливн. дождь, туман} 9/5 600 м
[Cb calv Ac und Cs]
+27.8 +25.4 87 +41 +42 опасность
перегрева
1008.6 1008.1 4
СЗ 2 10 км осадки на расстоянии {гроза, ливн. дождь} 9/5 660 м
[Cu med, cong Ac As]
+27.1 +24.9 88 +39 +39 очень
душно
1009.0 1008.5 +24.1 +30.5 4 24.9
З 2 5000 м дождь 10/10 600 м
[Sc diur, vesp Ac und Cs]
+30.5 +24.1 69 +33 +33 душно 1011.1 1010.6 +24.1 +30.5 35
З 2 8000 м в посл. час дождь {туман} 9/5 600 м
[Sc diur, vesp Ac As]
+25.5 +23.9 91 +35 +37 очень
душно
1011.8 1011.3 6
СЗ 4 15 км мгла {дождь} 9/4 660 м
[Cu med, cong Ac As]
+27.6 +24.3 82 +39 +41 очень
душно
1011.6 1011.1 +23.7 +27.6
СЗ 3 10 км осадки на расстоянии {туман} 9/5 720 м
[Cu med, cong Ac As]
+27.3 +24.3 84 +38 +40 очень
душно
1008.7 1008.2
СЗ 6 10 км осадки на расстоянии {туман} 9/5 660 м
[Cu med, cong Ac As]
+27.1 +24.0 83 +37 +37 очень
душно
1009.2 1008.7 +23.7 +28.9 40.1
штиль 0 15 км мгла 9/4 660 м
[Sc Ac As]
+24.5 +21.3 82 +31 +31 очень
душно
1009.8 1009.3 +21.8 +28.9
З 2 15 км мгла 9/3 720 м
[Cu med, cong Ac As]
+27.3 +22.0 73 +35 +38 очень
душно
1010.8 1010.3
З 2 15 км мгла 9/3 660 м
[Cu med, cong Ac As]
+26.8 +22.6 78 +35 +40 очень
душно
1010.5 1010.0 +21.5 +27.3
Ю 2 15 км мгла 9/3 660 м
[Sc Ac As]
+28.2 +24.5 80 +40 +42 очень
душно
1008.1 1007.6 0.1
ЮВ 2 15 км мгла 9/3 660 м
[Sc Ac As]
+25.2 +22.4 84 +33 +33 очень
душно
1008.6 1008.1 +21.5 +28.6 0.1 0.1
Ю 2 15 км мгла 8/1 720 м
[Cu med, cong Ac trans Cs]
+24.1 +21.3 84 +30 +30 очень
душно
1010.9 1010.4 +23.9 +28.6
Ю 2 20 км мгла 9/0 800 м
[Ac As Cs]
+29.3 +23.7 72 +40 +45 очень
душно
1011.8 1011.3
В 2 20 км мгла 9/3 800 м
[Cu hum Ac trans Cs]
+30.7 +23.8 67 +42 +49 опасность
перегрева
1011.3 1010.8 +23.9 +30.7
В 2 15 км мгла 8/0 750 м
[Ac As Cs]
+28.9 +24.0 75 +40 +43 очень
душно
1009.6 1009.1
штиль 0 15 км мгла 9/3 720 м
[Cu med, cong Ac As]
+27.2 +25.3 89 +39 +39 очень
душно
1008.7 1008.2 +23.9 +31.2
штиль 0 18 км мгла 9/3 750 м
[Cu hum Ac trans Cs]
+24.8 +23.0 90 +33 +33 очень
душно
1011.8 1011.3 +25.0 +31.2
В 2 20 км мгла 9/6 600 м
[Cb calv Ac und Cs]
+28.3 +24.9 82 +41 +44 опасность
перегрева
1012.4 1011.9
В 2 20 км мгла 9/9 600 м
[Sc diur, vesp Ac und Cs]
+30.3 +24.8 72 +43 +49 опасность
перегрева
1011.8 1011.3 +24.8 +30.3
В 3 15 км мгла 9/9 600 м
[Sc diur, vesp Ac und Cs]
+30.2 +25.7 77 +45 +46 опасность
перегрева
1008.7 1008.2
СВ 2 15 км 9/9 600 м
[Sc diur, vesp Ac und Cs]
+31.5 +24.8 68 +41 +41 опасность
перегрева
1009.1 1008.6 +24.8 +31.5
штиль 0 18 км гроза без осадков 5/1 660 м
[Cb cap As op Ci ing]
+25.2 +23.3 89 +34 +34 очень
душно
1012.3 1011.8 +25.2 +31.5
З 2 18 км мгла {гроза} 5/5 700 м
[Cb cap Ac trans]
+27.2 +24.2 84 +38 +43 очень
душно
1014.2 1013.7
штиль 0 20 км мгла {гроза} 3/3 600 м
[Cu Sc As op Ci]
+29.2 +25.2 79 +41 +56 опасность
перегрева
1013.2 1012.7 +25.2 +29.2
штиль 0 20 км мгла 8/0 600 м
[Ac As Cs]
+29.4 +24.5 75 +42 +46 опасность
перегрева
1011.1 1010.6
штиль 0 12 км мгла 8/4 700 м
[Cu med, cong Cs]
+27.2 +24.6 86 +39 +39 очень
душно
1012.5 1012.0 +25.2 +31.5
Местоположение метеостанции Трухильо (Гондурас): широта 15.93 долгота -85.93 высота над уровнем моря 3 м.
В архиве по умолчанию представлена погода в Трухильо за последнюю неделю. Архивные данные за месяц целиком и за предыдущие месяцы, начиная с января 2011 года, Вы можете получить, выбрав интересующий диапазон дат из раскрывающегося списка и нажав кнопку "Найти!".
*Определитесь, кто Вы:
Внимание! Время в таблицах - всемирное. Для получения местного времени необходимо прибавить поправку, которая равна -6 ч.
Смотрите также архив погоды в соседних городах и на ближайших метеорологических станциях:
Партнеры нашего сайта:      
Пояснения к столбцам:
  • Ветер - указаны скорость ветра в м/с - средняя за 10 мин, порывы в срок и между сроками (в фигурных скобках) и направление, откуда дует ветер: С - северный,
  • СВ - северо-восточный, В - восточный, ЮВ - юго-восточный, Ю - южный, ЮЗ - юго-западный, З - западный, СЗ - северо-западный.
  • Видимость - горизонтальная дальность видимости в метрах или километрах. При видимости от 1 до 10 км при отсутствии осадков обычно наблюдается дымка, при ухудшении видимости до 1 км и менее - туман. В сухую погоду видимость может ухудшаться дымом, пылью или мглою.
  • Явления - указаны атмосферные явления, наблюдавшиеся в срок или в последний час перед сроком; фигурными скобками обозначены явления, наблюдавшиеся между сроками (за 1-3 часа до срока); квадратными скобками обозначены град или гололедные отложения с указанием их диаметра в мм.
  • Облачность - указаны через наклонную черту общая и нижняя облачность в баллах и высота нижней границы облаков в метрах; квадратными скобками обозначены формы облаков: Ci - перистые, Cs - перисто-слоистые, Cc - перисто-кучевые, Ac - высококучевые, As - высокослоистые, Sc - слоисто-кучевые, Ns - слоисто-дождевые, Cu - кучевые, Cb - кучево-дождевые. Подробнее классификацию облаков см. в Атласе облаков (PDF).
  • T - Температура воздуха - температура, измеренная на высоте 2 м над землей.
  • Td - Температура точки росы - температура, при понижении до которой содержащийся в воздухе водяной пар достигнет насыщения.
  • f - Относительная влажность воздуха - влажноcть воздуха, измеренная на высоте 2 м над землей.
  • Te - Эффективная температура - температура, которую ощущает одетый по сезону человек в тени. Характеристика душности погоды. При расчете учитывается влияние влажности воздуха и скорости ветра на теплоощущения человека.
  • Tes - Эффективная температура на солнце - температура, которую ощущает человек, с поправкой на солнечный нагрев. Характеристика знойности погоды. Зависит от высоты солнца над горизонтом, облачности и скорости ветра. Ночью, в пасмурную погоду, а также при ветре 12 м/с и более поправка равна нулю.
  • P - Атмосферное давление - приведенное к уровню моря атмосферное давление.
  • Po - Атмосферное давление - измеренное на уровне метеостанции атмосферное давление.
  • Tmin - Минимальная температура - минимум температуры воздуха на высоте 2 м над землей.
  • Tmax - Максимальная температура - максимум температуры воздуха на высоте 2 м над землей.
  • R - Количество осадков - Количество выпавших осадков за период времени, мм. При наведении курсора мыши на число - период времени, за который выпало указанное количество осадков.
  • R24 - Количество осадков - Количество выпавших осадков за 24 часа, мм.
  • S - Снежный покров - Высота снежного покрова, см. При наведении курсора мыши на число - состояние снежного покрова и степень покрытия местности в баллах.